Regional Weather Roundup
Issued by NWS

Home | Current Version | Previous Version | Text Only | Print | Product List | Glossary On
Versions: 1 2 3 4 5 6 7 8 9 10 11 12 13 14 15 16 17 18 19 20 21 22 23 24 25 26 27 28 29 30 31 32 33 34 35 36 37 38 39 40 41 42 43 44 45 46 47 48 49 50
000
ASUS43 KLMK 200010
RWRKY
KENTUCKY REGIONAL WEATHER ROUNDUP
NATIONAL WEATHER SERVICE LOUISVILLE KY
800 PM EDT SAT APR 19 2014

NOTE "FAIR" INDICATES FEW OR NO CLOUDS BELOW 12,000 FEET
WITH NO SIGNIFICANT WEATHER AND/OR OBSTRUCTIONS TO VISIBILITY.

KYZ001>023-026-027-061>063-070>075-200100-
WESTERN AND SOUTH CENTRAL KENTUCKY

CITY           SKY/WX    TMP DP  RH WIND       PRES   REMARKS
PADUCAH        CLEAR     72  42  34 NE10      30.15S
HENDERSON      CLEAR     72  39  30 CALM      30.17S
OWENSBORO      CLEAR     70  37  29 E9        30.17F
HOPKINSVILLE   CLEAR     72  37  28 E6        30.14F
BOWLING GREEN  CLEAR     69  37  30 E6        30.16S
GLASGOW        CLEAR     69  37  30 CALM      30.16F
$$

KYZ024-025-028>034-038-045-046-053-200100-
NORTH CENTRAL KENTUCKY

CITY           SKY/WX    TMP DP  RH WIND       PRES   REMARKS
LOUISVILLE/SDF PTCLDY    70  35  27 NE8       30.19S
LOUISVILLE/LOU CLEAR     72  35  25 NE7       30.20S
FORT KNOX      CLEAR     69  36  29 NE8       30.18S
$$

KYZ035>037-039>044-047>052-055>060-089>105-200100-
NORTHEAST KENTUCKY

CITY           SKY/WX    TMP DP  RH WIND       PRES   REMARKS
LEXINGTON      CLEAR     65  38  36 N9        30.19S
COVINGTON      PTCLDY    65  33  30 NE10      30.23S
FRANKFORT      CLEAR     68  32  26 NE7       30.19S
$$

KYZ054-064>069-076>088-106>120-200100-
SOUTHEAST KENTUCKY

CITY           SKY/WX    TMP DP  RH WIND       PRES   REMARKS
JACKSON        MOCLDY    67  32  27 NE6       30.18R
LONDON         PTCLDY    71  35  26 NE5       30.15S
SOMERSET       CLEAR     68  36  30 N10       30.16S
MIDDLESBORO    CLOUDY    71  36  27 E6        30.14S
MONTICELLO     CLEAR     68  42  38 N8        30.17R
$$




USA.gov is the U.S. government's official web portal to all federal, state and local government web resources and services.